Weather reports worldwide

Advertisment
Marham, United Kingdom (3482): temperature & dewpoint: 09.12.2018 06:00:00 - 15.12.2018 06:00:00 (GMT)Marham, United Kingdom (3482): temperature -20cm & temperature -100cm: 09.12.2018 06:00:00 - 15.12.2018 06:00:00 (GMT)Marham, United Kingdom (3482): wind speed & gusts: 09.12.2018 06:00:00 - 15.12.2018 06:00:00 (GMT)Marham, United Kingdom (3482): wind direction: 09.12.2018 06:00:00 - 15.12.2018 06:00:00 (GMT)Marham, United Kingdom (3482): reduced air pressure: 09.12.2018 06:00:00 - 15.12.2018 06:00:00 (GMT)Marham, United Kingdom (3482): visibility: 09.12.2018 06:00:00 - 15.12.2018 06:00:00 (GMT)Marham, United Kingdom (3482): precipitation: 09.12.2018 06:00:00 - 15.12.2018 06:00:00 (GMT)
Date & Time tt [°C] td [°C] tt -20cm [°C] tt -100cm [°C] ff [km/h] ff [kn] fx [km/h] fx [kn] dd ppp [hPa] vv [km] rr [mm]
15.12.2018 06:00:00 - - - - - - - - - - - -
15.12.2018 05:00:00 1,1 -2,6 - - 16 9 - - S 1021,0 9 0,0
15.12.2018 04:00:00 1,3 -2,5 - - 15 8 - - S 1021,3 8 0,0
15.12.2018 03:00:00 1,6 -1,6 - - 11 6 - - S 1022,1 8 0,0
15.12.2018 02:00:00 1,9 -1,0 - - 9 5 - - SSE 1022,6 9 0,0
15.12.2018 01:00:00 2,3 -1,4 - - 11 6 - - SSE 1022,7 12 0,0
15.12.2018 00:00:00 2,8 -1,3 - - 11 6 - - ESE 1022,8 14 0,0
14.12.2018 23:00:00 2,7 -0,7 - - 9 5 - - SE 1023,4 14 0,0
14.12.2018 22:00:00 2,9 -0,3 - - 8 4 - - SE 1023,9 14 0,0
14.12.2018 21:00:00 2,7 0,1 - - 8 4 - - ESE 1023,6 13 0,0
14.12.2018 20:00:00 2,7 0,3 - - 5 3 - - E 1023,9 13 0,0
14.12.2018 19:00:00 2,8 0,0 - - 8 4 - - E 1024,0 14 0,0
14.12.2018 18:00:00 2,6 -0,2 - - 8 4 - - E 1024,3 10 0,0
14.12.2018 17:00:00 3,2 -0,1 - - 8 4 - - E 1024,4 17 0,0
14.12.2018 16:00:00 3,3 0,4 - - 8 4 - - ESE 1024,2 10 0,0
14.12.2018 15:00:00 3,4 0,6 - - 5 3 - - E 1024,1 20 0,0
14.12.2018 14:00:00 3,9 0,4 - - 5 3 - - E 1023,8 10 0,0
14.12.2018 13:00:00 4,1 0,3 - - 8 4 - - E 1024,1 10 0,0
14.12.2018 12:00:00 4,1 -0,1 - - 8 4 - - SSE 1024,3 10 0,0
14.12.2018 11:00:00 3,8 -0,9 - - 13 7 - - E 1023,9 10 0,0
14.12.2018 10:00:00 3,3 -0,2 - - 9 5 - - E 1023,1 10 0,0
14.12.2018 09:00:00 2,5 -0,1 7,0 9,0 11 6 - - E 1023,5 10 0,0
14.12.2018 08:00:00 2,1 -1,1 - - 8 4 - - E 1023,5 10 0,0
14.12.2018 07:00:00 2,4 -0,5 - - 4 2 - - E 1023,3 10 0,0
14.12.2018 06:00:00 2,3 -0,6 - - 5 3 - - NE 1023,2 10 0,0
14.12.2018 05:00:00 1,7 -0,1 - - 8 4 - - NNE 1023,1 10 0,0
14.12.2018 04:00:00 1,9 -0,2 - - 5 3 - - ENE 1022,9 10 0,0
14.12.2018 03:00:00 1,8 0,1 - - 5 3 - - NE 1022,8 10 0,0
14.12.2018 02:00:00 1,9 -0,6 - - 5 3 - - NE 1022,9 10 0,0
14.12.2018 01:00:00 3,0 -0,6 - - 8 4 - - ENE 1022,7 10 0,0
14.12.2018 00:00:00 3,2 -0,4 - - 5 3 - - NE 1022,6 10 0,0
13.12.2018 23:00:00 3,3 -0,7 - - 9 5 - - E 1022,5 10 0,0
13.12.2018 22:00:00 2,3 -1,1 - - 9 5 - - E 1022,1 10 0,0
13.12.2018 21:00:00 3,3 -1,3 - - 9 5 - - E 1021,9 10 0,0
13.12.2018 20:00:00 3,2 -1,6 - - 18 10 - - E 1021,6 10 0,0
13.12.2018 19:00:00 3,7 -1,2 - - 15 8 - - ENE 1021,5 10 0,0
13.12.2018 18:00:00 4,0 -1,4 - - 15 8 - - E 1021,2 20 0,0
13.12.2018 17:00:00 4,5 -0,8 - - 16 9 - - E 1020,7 10 0,0
13.12.2018 16:00:00 4,7 0,0 - - 13 7 - - E 1020,5 10 0,0
13.12.2018 15:00:00 5,3 0,3 - - 11 6 - - E 1019,9 20 0,0
13.12.2018 14:00:00 5,2 0,3 - - 15 8 - - ESE 1019,7 10 0,0
13.12.2018 13:00:00 5,7 1,3 - - 15 8 - - E 1019,7 10 0,0
13.12.2018 12:00:00 5,3 1,0 - - 15 8 - - ESE 1019,9 10 0,0
13.12.2018 11:00:00 5,3 0,8 - - 15 8 - - E 1020,0 10 0,0
13.12.2018 10:00:00 5,0 0,7 - - 15 8 - - ESE 1020,0 10 0,0
13.12.2018 09:00:00 4,5 0,3 7,2 9,2 15 8 - - E 1019,8 18 0,0
13.12.2018 08:00:00 4,3 -0,2 - - 15 8 - - E 1019,4 10 0,0
13.12.2018 07:00:00 4,1 -0,2 - - 16 9 - - ESE 1019,1 10 0,0
13.12.2018 06:00:00 4,4 -0,3 - - 16 9 - - ESE 1019,0 10 0,0
13.12.2018 05:00:00 4,2 -0,1 - - 15 8 - - ESE 1019,0 10 0,0
13.12.2018 04:00:00 4,5 -0,3 - - 18 10 - - ESE 1019,1 10 0,0
13.12.2018 03:00:00 4,8 -0,4 - - 22 12 - - ESE 1019,6 10 0,0
13.12.2018 02:00:00 4,8 -0,2 - - 22 12 - - SE 1020,3 10 0,0
13.12.2018 01:00:00 4,9 0,4 - - 22 12 - - ESE 1020,2 10 0,0
13.12.2018 00:00:00 5,2 0,8 - - 22 12 - - ESE 1020,5 10 0,0
12.12.2018 23:00:00 5,1 1,3 - - 16 9 - - ESE 1020,5 10 0,0
12.12.2018 22:00:00 5,0 0,9 - - 15 8 - - ESE 1021,0 10 0,0
12.12.2018 21:00:00 4,8 0,1 - - 15 8 - - ESE 1021,6 10 0,0
12.12.2018 20:00:00 3,0 -0,5 - - 15 8 - - ESE 1022,0 10 0,0
12.12.2018 19:00:00 3,5 -0,2 - - 15 8 - - ESE 1022,1 10 0,0
12.12.2018 18:00:00 3,0 -1,0 - - 9 5 - - E 1022,5 20 0,0
12.12.2018 17:00:00 3,7 -1,3 - - 9 5 - - ESE 1022,7 10 0,0
12.12.2018 16:00:00 4,7 -1,3 - - 11 6 - - ESE 1023,0 10 0,0
12.12.2018 15:00:00 6,3 -1,1 - - 16 9 - - SE 1023,1 20 0,0
12.12.2018 14:00:00 6,8 -1,3 - - 21 11 - - SSE 1023,5 20 0,0
12.12.2018 13:00:00 7,2 -0,9 - - 21 11 - - SE 1023,8 10 0,0
12.12.2018 12:00:00 6,8 0,0 - - 18 10 - - SE 1024,0 10 0,0
12.12.2018 11:00:00 6,3 1,1 - - 18 10 - - SE 1024,4 10 0,0
12.12.2018 10:00:00 5,1 1,4 - - 11 6 - - SE 1024,5 10 0,0
12.12.2018 09:00:00 4,0 1,1 7,4 9,5 13 7 - - SE 1024,3 10 0,0
12.12.2018 08:00:00 4,2 1,3 - - 11 6 - - SE 1024,3 10 0,0
12.12.2018 07:00:00 3,9 1,8 - - 15 8 - - ESE 1023,7 10 0,0
12.12.2018 06:00:00 4,8 2,1 - - 11 6 - - SE 1023,5 10 0,0
12.12.2018 05:00:00 4,7 1,9 - - 11 6 - - ESE 1023,5 10 0,0
12.12.2018 04:00:00 4,8 1,5 - - 8 4 - - SE 1023,7 10 0,0
12.12.2018 03:00:00 4,4 1,9 - - 13 7 - - ESE 1023,9 10 0,0
12.12.2018 02:00:00 3,8 1,5 - - 11 6 - - ESE 1024,0 10 0,0
12.12.2018 01:00:00 3,9 1,4 - - 13 7 - - ESE 1023,9 10 0,0
12.12.2018 00:00:00 4,1 1,8 - - 13 7 - - ESE 1023,8 10 0,0
11.12.2018 23:00:00 3,7 1,7 - - 15 8 - - ESE 1023,7 10 0,0
11.12.2018 22:00:00 3,1 1,2 - - 11 6 - - ESE 1023,9 10 0,0
11.12.2018 21:00:00 3,0 0,6 - - 9 5 - - ESE 1024,3 10 0,0
11.12.2018 20:00:00 3,2 0,6 - - 11 6 - - SE 1024,5 10 0,0
11.12.2018 19:00:00 3,3 1,2 - - 11 6 - - ESE 1024,6 10 0,0
11.12.2018 18:00:00 2,8 1,3 - - 11 6 - - ESE 1024,4 10 0,0
11.12.2018 17:00:00 3,1 1,3 - - 11 6 - - ESE 1024,2 10 0,0
11.12.2018 16:00:00 3,9 1,8 - - 11 6 - - E 1024,3 10 0,0
11.12.2018 15:00:00 6,3 2,5 - - 8 4 - - SE 1024,5 10 0,0
11.12.2018 14:00:00 7,0 2,9 - - 8 4 - - SSE 1024,8 10 0,0
11.12.2018 13:00:00 6,6 2,5 - - 9 5 - - SE 1025,1 10 0,0
11.12.2018 12:00:00 5,9 3,1 - - 9 5 - - SSE 1025,7 10 0,0
11.12.2018 11:00:00 4,3 2,7 - - 5 3 - - SSE 1026,2 10 0,0
11.12.2018 10:00:00 1,3 1,2 - - 5 3 - - SE 1026,1 10 0,0
11.12.2018 09:00:00 -0,4 -0,6 7,9 9,7 4 2 - - ESE 1026,2 6 0,0
11.12.2018 08:00:00 0,2 0,0 - - 8 4 - - ESE 1026,2 4,5 0,0
11.12.2018 07:00:00 0,9 0,8 - - 5 3 - - S 1026,0 3,0 0,0
11.12.2018 06:00:00 1,3 1,1 - - 2 1 - - NNW 1026,2 4,0 0,0
11.12.2018 05:00:00 1,8 1,6 - - 0 0 - - N 1026,3 4,5 0,0
11.12.2018 04:00:00 2,0 1,9 - - 8 4 - - ESE 1026,6 5 0,0
11.12.2018 03:00:00 -0,1 -0,4 - - 5 3 - - E 1026,7 5 0,0
11.12.2018 02:00:00 0,5 0,2 - - 2 1 - - E 1026,8 6 0,0
11.12.2018 01:00:00 0,6 0,2 - - 4 2 - - SE 1027,1 8 0,0
11.12.2018 00:00:00 1,0 0,6 - - 4 2 - - S 1027,4 10 0,0
10.12.2018 23:00:00 1,3 0,9 - - 5 3 - - SSW 1027,6 10 0,0
10.12.2018 22:00:00 0,5 -0,2 - - 2 1 - - ENE 1027,6 10 0,0
10.12.2018 21:00:00 2,0 1,1 - - 4 2 - - SSE 1027,4 10 0,0
10.12.2018 20:00:00 2,7 1,9 - - 4 2 - - SSW 1027,5 10 0,0
10.12.2018 19:00:00 2,3 1,5 - - 4 2 - - WSW 1027,5 10 0,0
10.12.2018 18:00:00 2,5 1,6 - - 2 1 - - W 1027,4 10 0,0
10.12.2018 17:00:00 3,3 1,6 - - 9 5 - - NW 1027,3 10 0,0
10.12.2018 16:00:00 5,0 2,5 - - 9 5 - - NW 1027,2 10 0,0
10.12.2018 15:00:00 5,9 2,3 - - 11 6 - - NNW 1026,9 25 0,0
10.12.2018 14:00:00 6,9 3,5 - - 15 8 - - NW 1026,5 10 0,0
10.12.2018 13:00:00 6,9 4,3 - - 15 8 - - NW 1026,3 10 0,0
10.12.2018 12:00:00 7,0 5,4 - - 15 8 - - NW 1026,2 10 0,0
10.12.2018 11:00:00 6,1 5,2 - - 11 6 - - W 1026,2 15 0,0
10.12.2018 10:00:00 5,6 4,8 - - 11 6 - - WNW 1025,6 15 0,0
10.12.2018 09:00:00 4,6 3,9 8,4 9,7 11 6 - - WNW 1025,3 10 0,0
10.12.2018 08:00:00 4,3 3,6 - - 16 9 - - WNW 1024,6 12 0,0
10.12.2018 07:00:00 3,9 3,3 - - 16 9 - - WNW 1023,9 10 0,0
10.12.2018 06:00:00 3,4 2,7 - - 15 8 - - W 1023,7 15 0,0
10.12.2018 05:00:00 2,3 1,2 - - 15 8 - - W 1023,2 10 0,0
10.12.2018 04:00:00 3,9 3,1 - - 15 8 - - W 1022,8 10 0,0
10.12.2018 03:00:00 3,9 3,1 - - 15 8 - - W 1022,3 10 0,0
10.12.2018 02:00:00 4,1 3,6 - - 15 8 - - W 1021,6 10 0,0
10.12.2018 01:00:00 4,2 3,1 - - 15 8 - - W 1021,1 10 0,0
10.12.2018 00:00:00 4,4 3,0 - - 15 8 - - W 1020,7 18 0,0
09.12.2018 23:00:00 4,3 2,1 - - 16 9 - - W 1020,0 10 0,0
09.12.2018 22:00:00 4,3 1,4 - - 16 9 - - WNW 1019,4 10 0,0
09.12.2018 21:00:00 4,8 1,6 - - 22 12 - - WNW 1018,6 10 0,0
09.12.2018 20:00:00 4,9 2,2 - - 21 11 - - WNW 1017,9 10 0,0
09.12.2018 19:00:00 5,3 1,8 - - 18 10 - - WNW 1016,8 30 0,0
09.12.2018 18:00:00 5,6 2,1 - - 15 8 - - WNW 1015,7 24 0,0
09.12.2018 17:00:00 6,2 2,5 - - 13 7 - - WNW 1014,6 30 0,0
09.12.2018 16:00:00 6,1 2,1 - - 16 9 - - NW 1013,3 35 0,0
09.12.2018 15:00:00 7,3 2,3 - - 28 15 - - WNW 1011,6 35 0,0
09.12.2018 14:00:00 8,3 3,8 - - 26 14 46 25 NW 1009,9 35 0,0
09.12.2018 13:00:00 8,2 3,4 - - 34 18 46 25 NW 1008,5 30 0,0
09.12.2018 12:00:00 8,2 4,4 - - 28 15 46 25 NW 1007,3 35 0,0
09.12.2018 11:00:00 7,9 5,0 - - 28 15 - - NW 1005,6 35 0,0
09.12.2018 10:00:00 7,4 5,5 - - 21 11 - - NW 1004,0 35 0,0
09.12.2018 09:00:00 7,2 5,7 8,7 9,7 24 13 - - WNW 1001,9 10 0,0
09.12.2018 08:00:00 7,8 6,3 - - 28 15 - - WNW 999,8 9 0,2
09.12.2018 07:00:00 7,7 6,4 - - 26 14 - - W 997,9 23 0,2
09.12.2018 06:00:00 7,7 6,1 - - 26 14 - - WSW 996,8 10 0,0

tt = temperature
td = dewpoint
tt -20cm = temperature -20cm
tt -100cm = temperature -100cm
ff = wind speed
fx = gusts
dd = wind direction
ppp = reduced air pressure
vv = visibility
rr = precipitation

Next stations